Location: ????????
(55.0559°N, 39.1270°E)
Time: 01:01:43
(UTC+00:00)

Helios 1A Rocket - Pass Details

Date: 15 November 2025
Orbit: 439 x 451 km, 98.3° (Epoch: 12 December)

Event Time Altitude Azimuth Distance (km) Brightness Sun altitude
Rises 02:58:12 0° 182° (S) 2,431 6.2 -16.5°
Reaches altitude 10° 03:00:19 10° 192° (SSW) 1,562 5.1 -16.2°
Maximum altitude 03:03:26 36° 261° (W) 722 2.9 -15.7°
Enters shadow 03:03:38 36° 270° (W) 728 2.9 -15.7°
